Location: Coupvray
(48.8929°N, 2.7967°E)
Time: 09:51:49
(UTC+00:00)

Abrixas rocket - Pass Details

Date: 14 July 2020
Orbit: 339 x 347 km, 48.4° (Epoch: 05 August)

Event Time Altitude Azimuth Distance (km) Brightness Sun altitude
Exits shadow 01:34:28 34° 267° (W) 591 2.7 -16.1°
Maximum altitude 01:35:34 74° 189° (S) 357 1.6 -16.0°
Drops below altitude 10° 01:38:25 10° 104° (ESE) 1,282 4.8 -15.8°
Sets 01:40:25 0° 102° (ESE) 2,120 6.0 -15.6°
